Location: Park Creek Village Mobile Home Park
(38.2885°N, 122.4714°W)
Time: 19:39:53
(UTC+00:00)

CENTAUR R/B - Pass Details

Date: 14 December 2019
Orbit: 773 x 1415 km, 63.4° (Epoch: 18 January)

Event Time Altitude Azimuth Distance (km) Brightness Sun altitude
Rises 13:31:39 0° 180° (S) 3,326 5.5 -20.3°
Reaches altitude 10° 13:34:14 10° 170° (S) 2,457 4.9 -19.8°
Maximum altitude 13:39:06 30° 110° (ESE) 1,575 4.3 -18.9°
Drops below altitude 10° 13:44:35 10° 52° (NE) 2,794 5.4 -17.9°
Sets 13:47:42 0° 42° (NE) 3,862 6.0 -17.3°
